Temp
5 5 6 6 6 6 6 7 7 7 7 7 7 7 7 7 7 7 7 7 7 8 8 8 8 8 8 8 7 7 8 8 9 9 9 9 9 9 9 8 8 8 8 9 9 9 9 9 9 8 8 9 9 9 9 10 10 10 10 10 10 10 10 10 10 10 10 10 11
5 5 5 6 6 6 6 6 7 7 7 7 7 7 7 7 7 7 7 7 8 8 8 8 8 8 8 8 8 8 8 8 8 9 9 9 9 9 9 8 8 8 8 8 9 9 9 9 9 8 8 9 9 9 10 10 10 10 10 10 10 10 10 10 10 10 10 10 11
5 5 5 5 6 6 6 6 6 7 7 7 7 8 7 7 7 7 7 7 8 8 8 8 8 9 9 8 8 8 8 8 8 9 9 9 9 9 9 8 8 8 8 8 8 9 9 9 9 9 9 9 9 10 10 10 10 10 10 10 10 10 10 10 10 10 10 10 11
5 5 5 5 5 6 6 6 6 6 7 7 7 7 7 7 7 7 7 7 8 8 8 8 8 9 9 9 8 8 8 9 9 9 9 9 9 9 8 8 8 8 8 8 8 9 9 9 9 9 9 9 9 10 10 10 10 10 10 10 10 10 10 10 10 10 10 10 11
5 5 5 5 5 5 5 6 6 6 6 6 7 7 7 7 7 7 7 7 7 7 8 8 8 9 9 9 9 9 9 9 9 9 9 9 9 9 9 8 8 8 8 8 8 8 9 9 9 9 9 9 9 10 10 10 10 10 10 10 10 10 10 10 10 10 10 10 11
5 5 5 5 5 5 5 5 6 6 6 6 7 7 7 7 7 7 7 7 7 7 8 8 8 9 9 9 9 9 9 9 10 10 10 9 9 9 9 8 8 8 8 8 8 8 9 9 9 8 8 9 9 10 10 10 10 10 10 10 10 10 10 10 10 10 10 10 11
5 5 5 5 5 5 5 5 6 6 6 6 6 6 7 7 7 7 7 7 7 8 8 8 8 9 9 9 9 9 10 10 10 10 10 10 10 9 9 9 8 8 8 8 8 8 9 9 8 8 8 9 9 10 10 10 10 10 10 10 10 10 10 10 10 10 10 10 10
4 5 5 5 5 5 5 5 5 6 6 6 6 6 6 7 7 7 7 7 8 8 8 8 8 9 9 9 9 10 10 10 10 10 10 10 10 10 9 9 9 8 8 8 8 9 9 9 9 8 8 9 9 9 10 10 10 10 10 10 10 10 10 10 10 10 10 10 10
4 4 4 5 5 5 5 5 5 6 6 6 6 6 6 7 7 7 7 7 7 8 8 8 8 9 9 9 9 10 10 10 10 10 10 10 10 10 10 9 9 9 8 8 8 9 9 9 9 8 8 9 9 10 10 10 10 10 10 10 10 10 10 10 10 10 10 10 10
3 4 4 4 5 5 5 5 5 5 6 6 6 6 6 6 7 7 7 7 7 8 8 8 8 9 9 9 9 10 10 10 10 10 10 10 10 10 10 10 10 9 9 9 9 9 9 9 9 8 8 9 9 10 10 10 10 10 10 10 10 10 10 10 10 10 10 10 10
3 3 4 4 4 4 5 5 5 5 5 6 6 6 6 6 6 7 7 7 7 7 8 8 8 8 9 9 9 9 10 10 10 10 10 10 10 10 10 10 10 10 9 9 9 9 9 9 9 9 8 9 9 10 10 10 10 10 10 10 10 10 10 10 10 10 10 10 10
2 2 3 3 4 4 4 5 5 5 5 5 5 6 6 6 6 6 7 7 7 7 8 8 8 8 8 9 9 9 10 10 10 10 10 10 10 10 10 10 10 10 9 9 9 9 10 9 9 9 9 9 9 10 10 10 10 10 10 10 10 10 9 10 10 10 10 10 10
1 1 2 3 3 4 4 4 5 5 5 5 5 5 5 6 6 6 6 7 7 7 7 8 8 8 8 8 9 9 10 10 10 10 10 10 10 10 10 10 10 10 9 9 9 10 10 9 9 9 9 9 9 9 10 10 10 10 10 10 10 10 10 10 10 10 10 10 10
1 1 1 2 2 3 4 4 4 5 5 5 5 5 5 5 6 6 6 6 7 7 7 8 8 8 8 8 9 9 9 10 10 10 10 10 10 10 10 10 10 10 10 10 10 10 10 9 9 9 9 9 9 9 10 10 10 10 10 10 10 10 10 10 10 10 10 10 10
1 0 0 1 2 2 3 4 4 4 4 4 5 5 5 5 5 6 6 6 7 7 7 7 8 8 8 8 9 9 9 10 10 10 10 10 10 10 10 10 10 10 10 10 10 10 10 9 9 9 8 9 9 9 9 10 10 10 10 10 10 10 10 10 10 10 10 10 10
1 0 -0 -0 0 1 2 3 4 4 4 4 4 4 5 5 5 6 6 6 6 7 7 7 7 8 8 8 9 9 9 9 10 10 10 10 10 10 10 10 10 10 10 10 10 10 9 9 9 9 8 8 8 9 9 10 10 10 10 10 10 10 10 10 10 10 10 10 10
1 0 -0 -1 -0 0 1 2 3 3 4 4 4 4 4 5 5 5 6 6 6 6 7 7 7 8 8 8 8 9 9 9 10 10 10 10 10 10 10 10 10 10 10 10 10 10 10 10 9 9 8 8 8 8 9 10 10 10 10 10 10 10 10 10 10 10 10 10 10
1 -0 -1 -1 -1 -1 0 1 2 3 3 4 4 4 4 4 5 5 6 6 6 6 7 7 7 7 8 8 8 9 9 9 9 10 10 10 10 10 10 10 10 10 10 10 10 10 10 10 9 9 8 8 8 8 8 9 10 10 10 10 10 10 10 10 10 10 10 10 10
0 0 -1 -1 -1 -1 -1 0 1 2 3 3 4 4 4 4 5 5 5 6 6 6 6 7 7 7 7 8 8 8 9 9 9 9 10 10 10 10 10 10 10 10 10 10 10 10 10 10 10 9 8 8 8 8 8 9 10 10 10 10 10 10 10 10 10 10 10 10 10
0 0 -0 -1 -1 -1 -1 -0 0 1 2 3 3 4 4 4 4 5 5 5 6 6 6 7 7 7 7 8 8 8 9 9 9 9 9 10 10 10 10 10 10 10 10 10 10 10 10 10 10 9 8 8 8 8 9 9 10 10 10 10 10 10 10 10 10 10 10 10 10
0 0 -0 -1 -1 -1 -1 -1 -0 1 2 2 3 3 4 4 4 5 5 5 5 6 6 6 7 7 7 7 8 8 8 9 9 9 9 9 10 10 10 10 10 10 10 10 10 10 10 10 9 9 9 8 7 8 9 10 10 10 10 10 10 10 10 10 10 10 10 10 10
0 -0 -0 -0 -1 -1 -1 -1 -1 0 1 2 3 3 4 4 4 4 5 5 5 5 6 6 7 7 7 7 8 8 8 8 9 9 9 9 9 10 10 10 10 10 10 10 10 10 10 10 9 9 9 8 7 8 9 10 10 10 10 10 10 10 10 10 10 10 10 10 10
-0 -0 -0 -0 -1 -1 -1 -1 -1 -0 0 1 2 3 3 4 4 4 5 5 5 5 5 6 6 7 7 7 7 8 8 8 8 9 9 9 9 9 10 10 10 10 10 10 10 10 10 10 10 9 9 9 8 8 9 9 10 10 10 10 10 10 10 10 10 10 10 10 10
-1 -1 -0 -0 -1 -1 -1 -1 -1 -1 -0 1 2 2 3 4 4 4 4 5 5 5 5 6 6 6 7 7 7 7 8 8 8 9 9 9 9 9 10 10 10 10 10 10 10 10 10 10 10 9 9 9 8 8 9 9 10 10 10 10 10 10 10 10 10 10 10 10 10
-1 -1 -1 -1 -1 -1 -1 -1 -1 -1 -1 -0 1 2 3 3 4 4 4 5 5 5 5 5 6 6 6 7 7 7 7 8 8 8 9 9 9 9 9 10 10 10 10 10 10 9 9 9 9 9 9 9 8 8 9 9 9 10 10 10 10 10 10 10 10 10 10 10 10
-2 -2 -1 -1 -1 -1 -1 -1 -1 -1 -1 -0 0 1 2 3 3 4 4 5 5 5 5 5 5 6 6 6 7 7 7 7 8 8 8 9 9 9 9 9 10 10 9 9 9 9 9 9 9 9 9 9 9 9 9 9 9 9 10 10 10 10 10 10 10 10 10 10 10
-2 -2 -2 -2 -2 -2 -2 -1 -1 -1 -1 -1 -0 1 1 2 3 4 4 4 5 5 5 5 5 5 6 6 6 7 7 7 7 8 8 8 9 9 9 9 9 9 9 9 9 9 9 9 9 9 9 9 9 9 10 9 9 9 10 10 10 10 10 10 10 10 10 10 10
-3 -3 -2 -2 -2 -2 -2 -1 -1 -1 -1 -1 -0 0 1 2 3 3 4 4 4 5 5 5 5 5 5 6 6 6 7 7 7 7 8 8 8 9 9 9 9 9 9 9 9 9 9 9 9 9 9 9 9 9 9 9 9 10 10 10 10 10 10 10 10 10 9 9 9
-3 -3 -3 -3 -2 -2 -2 -1 -1 -0 -0 -0 -0 -0 0 1 2 3 3 4 4 5 5 5 5 5 5 6 6 6 6 7 7 7 7 8 8 8 9 9 9 9 9 9 9 9 9 9 9 9 9 9 9 9 9 9 9 10 10 10 9 9 10 10 10 10 9 9 9
-4 -4 -3 -3 -3 -2 -2 -1 -1 -0 -0 -0 -0 -0 0 1 2 2 3 3 4 4 4 4 5 5 5 5 5 6 6 6 7 7 7 7 8 8 8 8 9 9 9 9 9 9 9 9 9 9 9 9 9 9 9 9 9 9 9 9 9 9 9 10 10 9 9 9 9
-4 -4 -4 -3 -3 -2 -2 -1 -1 -0 -0 0 0 0 0 0 1 2 2 3 3 4 4 4 5 5 5 5 5 5 6 6 6 7 7 7 7 8 8 8 8 9 9 9 9 9 9 9 9 9 9 9 9 9 9 9 9 9 9 9 9 9 9 9 9 9 9 9 9
-4 -4 -4 -4 -3 -3 -2 -2 -1 -0 0 0 0 0 0 0 1 1 2 2 3 3 4 4 5 5 5 5 5 5 5 6 6 6 7 7 7 7 8 8 8 8 9 9 9 8 8 9 9 9 9 9 9 9 9 9 9 9 9 9 9 9 9 9 9 9 9 9 9
-5 -4 -4 -4 -3 -3 -2 -2 -1 -0 0 0 0 0 0 0 0 1 1 2 2 3 3 4 4 5 5 5 5 5 5 5 6 6 6 7 7 7 7 8 8 8 8 8 8 8 8 8 8 9 9 9 9 9 9 9 9 9 9 8 8 9 9 9 9 9 9 9 9
-5 -4 -4 -4 -4 -3 -3 -2 -1 -1 -0 0 1 0 0 0 0 1 1 1 2 2 3 3 4 4 4 5 5 5 5 5 6 6 6 6 7 7 7 7 8 8 8 8 8 8 8 8 8 8 9 9 9 8 8 8 8 8 8 8 8 8 9 9 9 9 9 9 9
-5 -4 -4 -4 -4 -3 -3 -3 -2 -1 -0 0 0 1 0 0 0 0 1 1 1 2 2 3 3 4 4 4 4 5 5 5 5 6 6 6 6 7 7 7 8 8 8 8 8 8 8 8 8 8 9 9 8 8 8 8 8 8 8 8 8 8 8 9 9 9 9 9 9
-4 -4 -4 -4 -4 -4 -3 -3 -2 -2 -1 -0 0 0 0 0 0 0 0 1 1 1 2 2 3 4 4 4 4 5 5 5 5 5 6 6 6 7 7 7 7 8 8 8 8 8 8 8 8 8 8 8 8 8 8 8 8 8 8 8 8 8 8 9 9 9 9 9 9
-4 -4 -4 -4 -4 -4 -4 -3 -3 -2 -1 -1 -0 0 0 0 0 0 0 1 1 1 2 2 3 3 4 4 4 5 4 4 5 5 5 6 6 6 7 7 7 7 7 7 7 7 8 8 8 8 8 8 8 8 8 8 8 8 8 8 8 8 8 9 9 9 9 9 9
-4 -4 -4 -4 -4 -4 -4 -3 -3 -2 -2 -1 -0 -0 0 0 1 0 0 0 1 1 1 2 2 3 4 4 4 4 4 4 4 5 5 5 6 6 6 7 7 7 7 7 7 7 7 8 8 8 8 8 8 8 8 8 8 8 8 8 8 8 8 8 9 9 9 9 9
-4 -4 -4 -4 -4 -4 -4 -4 -3 -3 -2 -1 -1 -0 0 0 0 0 0 0 0 1 1 2 2 3 3 3 4 4 4 4 4 5 5 5 5 6 6 6 7 7 7 7 7 7 7 7 8 8 8 8 8 8 8 8 8 8 8 8 8 8 8 8 9 9 9 9 9
-4 -4 -4 -4 -4 -4 -4 -4 -3 -3 -2 -2 -1 -0 0 0 0 0 0 0 0 1 1 1 2 2 3 3 3 4 4 4 4 4 5 5 5 5 6 6 6 7 7 7 7 7 7 7 8 8 8 8 8 8 8 8 8 8 8 8 8 9 8 8 9 9 9 9 9
-4 -4 -4 -4 -4 -4 -4 -4 -3 -3 -2 -2 -1 -1 -0 0 0 0 0 0 0 0 1 1 1 2 2 3 3 4 4 4 4 4 4 5 5 5 5 6 6 6 7 7 7 7 7 7 8 8 8 7 7 7 8 8 8 8 8 8 8 8 8 8 9 9 9 9 9
Height
1451 1450 1450 1450 1450 1450 1450 1450 1450 1450 1450 1450 1450 1450 1450 1449 1449 1449 1449 1449 1449 1449 1449 1449 1449 1449 1449 1449 1450 1450 1450 1450 1451 1451 1452 1453 1453 1454 1454 1454 1454 1454 1453 1453 1453 1453 1453 1453 1453 1453 1454 1454 1454 1454 1454 1454 1454 1454 1455 1455 1455 1455 1455 1455 1455 1455 1455 1455 1454
1450 1450 1450 1450 1450 1449 1449 1449 1449 1449 1449 1449 1449 1449 1449 1449 1449 1449 1449 1448 1448 1449 1449 1449 1449 1449 1449 1449 1449 1449 1449 1450 1450 1450 1451 1452 1452 1453 1453 1453 1453 1453 1453 1453 1452 1452 1452 1452 1453 1453 1453 1453 1453 1454 1454 1454 1454 1454 1454 1454 1455 1455 1455 1455 1455 1455 1455 1454 1454
1449 1449 1449 1449 1449 1448 1448 1448 1448 1448 1448 1448 1448 1449 1449 1448 1448 1448 1448 1448 1448 1448 1448 1448 1448 1448 1448 1448 1449 1449 1449 1449 1449 1450 1450 1451 1451 1452 1452 1452 1452 1452 1452 1452 1452 1452 1452 1452 1452 1452 1452 1453 1453 1453 1453 1453 1454 1454 1454 1454 1454 1455 1455 1455 1455 1455 1454 1454 1454
1449 1448 1448 1448 1448 1448 1447 1447 1447 1447 1448 1448 1448 1448 1448 1448 1448 1447 1447 1447 1447 1447 1447 1447 1447 1448 1448 1448 1448 1448 1448 1448 1448 1449 1449 1450 1450 1451 1451 1451 1451 1451 1451 1451 1451 1451 1451 1451 1451 1452 1452 1452 1452 1452 1453 1453 1453 1453 1454 1454 1454 1454 1454 1454 1454 1454 1454 1454 1454
1448 1448 1447 1447 1447 1447 1447 1447 1447 1447 1447 1447 1447 1447 1447 1447 1447 1447 1447 1446 1446 1446 1446 1447 1447 1447 1447 1447 1447 1447 1447 1447 1447 1448 1448 1449 1450 1450 1450 1450 1451 1451 1451 1451 1450 1450 1450 1451 1451 1451 1451 1452 1452 1452 1452 1453 1453 1453 1453 1453 1454 1454 1454 1454 1454 1454 1454 1454 1453
1447 1447 1447 1446 1446 1446 1446 1446 1446 1446 1446 1446 1446 1446 1446 1446 1446 1446 1446 1446 1446 1446 1446 1446 1446 1446 1446 1446 1447 1447 1447 1447 1446 1447 1447 1448 1448 1449 1449 1450 1450 1450 1450 1450 1450 1450 1450 1450 1450 1451 1451 1451 1451 1452 1452 1452 1452 1453 1453 1453 1453 1454 1454 1454 1454 1454 1454 1453 1453
1446 1446 1446 1446 1445 1445 1445 1445 1445 1445 1445 1445 1445 1445 1445 1445 1445 1445 1445 1445 1445 1445 1445 1445 1445 1445 1446 1446 1446 1446 1446 1446 1446 1446 1446 1447 1447 1448 1448 1449 1449 1449 1449 1449 1449 1450 1450 1450 1450 1450 1450 1450 1451 1451 1451 1452 1452 1452 1452 1453 1453 1453 1453 1454 1454 1453 1453 1453 1453
1445 1445 1445 1445 1445 1445 1445 1444 1444 1444 1444 1444 1444 1445 1445 1445 1445 1445 1445 1445 1444 1444 1445 1445 1445 1445 1445 1445 1445 1445 1445 1445 1445 1445 1445 1446 1446 1447 1447 1448 1448 1448 1448 1449 1449 1449 1449 1450 1450 1450 1450 1450 1450 1450 1451 1451 1451 1452 1452 1452 1453 1453 1453 1453 1453 1453 1453 1453 1453
1445 1444 1444 1444 1444 1444 1444 1444 1443 1443 1443 1443 1443 1444 1444 1444 1444 1444 1444 1444 1444 1444 1444 1444 1444 1444 1444 1444 1444 1444 1444 1445 1445 1445 1445 1445 1445 1446 1446 1447 1447 1447 1448 1448 1448 1448 1449 1449 1449 1449 1450 1450 1450 1450 1450 1451 1451 1451 1452 1452 1453 1453 1453 1453 1453 1453 1453 1453 1453
1443 1443 1443 1443 1443 1443 1443 1443 1442 1442 1442 1442 1442 1443 1443 1443 1443 1443 1443 1443 1443 1443 1443 1443 1443 1443 1443 1443 1443 1443 1444 1444 1444 1444 1444 1444 1445 1445 1445 1446 1446 1446 1447 1447 1447 1447 1448 1448 1448 1449 1449 1449 1449 1449 1450 1450 1450 1451 1451 1452 1452 1452 1453 1453 1453 1453 1453 1453 1453
1442 1442 1442 1442 1442 1442 1442 1441 1442 1442 1442 1442 1442 1442 1442 1442 1442 1442 1442 1442 1442 1442 1442 1442 1442 1443 1442 1442 1442 1442 1443 1443 1443 1443 1443 1443 1444 1444 1444 1445 1445 1445 1446 1446 1446 1447 1447 1447 1448 1448 1448 1449 1449 1449 1449 1450 1450 1450 1451 1451 1452 1452 1452 1452 1453 1453 1453 1453 1453
1442 1441 1441 1441 1441 1440 1440 1440 1440 1440 1441 1441 1441 1441 1441 1441 1441 1441 1441 1441 1441 1441 1442 1442 1442 1442 1442 1442 1441 1441 1442 1442 1442 1442 1442 1442 1443 1443 1443 1444 1444 1445 1445 1445 1445 1446 1446 1447 1447 1447 1447 1448 1448 1448 1449 1449 1450 1450 1450 1451 1451 1452 1452 1452 1452 1453 1453 1453 1453
1441 1441 1440 1440 1440 1440 1440 1440 1440 1440 1440 1440 1440 1440 1440 1440 1440 1440 1440 1440 1440 1440 1441 1441 1441 1441 1441 1441 1441 1441 1441 1441 1441 1441 1441 1441 1442 1442 1442 1443 1443 1444 1444 1445 1445 1445 1446 1446 1446 1446 1447 1447 1447 1448 1448 1449 1449 1450 1450 1450 1451 1451 1451 1452 1452 1452 1452 1453 1453
1441 1440 1440 1439 1439 1439 1438 1438 1438 1439 1439 1439 1439 1439 1439 1439 1439 1439 1439 1440 1440 1440 1440 1440 1440 1440 1440 1440 1440 1440 1440 1440 1440 1440 1440 1440 1441 1441 1441 1442 1442 1443 1443 1444 1444 1445 1445 1446 1446 1446 1446 1446 1446 1447 1447 1448 1448 1449 1450 1450 1450 1451 1451 1451 1452 1452 1452 1453 1453
1440 1440 1439 1439 1438 1438 1437 1437 1437 1437 1438 1438 1438 1438 1438 1438 1438 1438 1438 1438 1439 1439 1439 1439 1439 1439 1439 1439 1439 1439 1439 1439 1440 1440 1440 1440 1440 1440 1440 1441 1441 1442 1442 1443 1443 1444 1445 1445 1445 1446 1446 1446 1446 1446 1447 1447 1448 1449 1449 1450 1450 1450 1451 1451 1452 1452 1452 1452 1452
1440 1439 1439 1438 1437 1437 1436 1436 1436 1436 1436 1436 1437 1437 1437 1437 1437 1437 1437 1437 1437 1437 1438 1438 1438 1438 1438 1438 1438 1438 1438 1439 1439 1439 1439 1439 1439 1439 1440 1440 1440 1441 1441 1442 1443 1443 1444 1445 1445 1445 1445 1445 1445 1446 1446 1447 1447 1448 1449 1449 1450 1450 1450 1451 1451 1452 1452 1452 1452
1439 1439 1438 1437 1437 1436 1435 1435 1435 1435 1435 1435 1435 1435 1435 1436 1436 1436 1436 1436 1436 1436 1436 1437 1437 1437 1437 1437 1437 1438 1438 1438 1438 1438 1438 1438 1438 1438 1439 1439 1440 1440 1440 1441 1442 1443 1443 1444 1444 1445 1445 1445 1445 1446 1446 1446 1447 1447 1448 1449 1449 1450 1450 1451 1451 1451 1452 1452 1452
1439 1438 1437 1437 1436 1435 1435 1435 1434 1434 1434 1434 1434 1435 1435 1435 1435 1435 1435 1435 1435 1435 1435 1435 1436 1436 1436 1436 1436 1437 1437 1437 1437 1437 1437 1437 1438 1438 1438 1438 1439 1439 1440 1440 1441 1442 1442 1443 1444 1444 1444 1444 1445 1445 1446 1446 1446 1447 1448 1448 1449 1449 1450 1450 1451 1451 1451 1452 1452
1438 1437 1437 1436 1435 1435 1435 1434 1433 1433 1433 1433 1433 1433 1433 1433 1434 1434 1434 1434 1434 1434 1434 1435 1435 1435 1435 1435 1435 1435 1436 1436 1436 1436 1436 1437 1437 1437 1437 1438 1438 1439 1439 1440 1440 1441 1441 1442 1443 1443 1444 1444 1444 1445 1445 1445 1446 1446 1447 1448 1448 1449 1450 1450 1450 1451 1451 1452 1452
1438 1437 1436 1435 1435 1434 1434 1433 1432 1432 1432 1432 1432 1432 1432 1432 1432 1432 1433 1433 1433 1433 1433 1433 1434 1434 1434 1434 1434 1435 1435 1435 1435 1435 1435 1436 1436 1436 1437 1437 1437 1438 1438 1439 1440 1440 1441 1441 1442 1443 1443 1443 1444 1444 1444 1445 1445 1446 1447 1447 1448 1449 1449 1450 1450 1451 1451 1451 1452
1437 1436 1435 1435 1434 1434 1433 1433 1432 1431 1431 1431 1431 1431 1431 1431 1431 1431 1431 1432 1432 1432 1432 1432 1432 1433 1433 1433 1433 1434 1434 1434 1435 1435 1435 1435 1435 1435 1436 1436 1437 1437 1438 1438 1439 1440 1440 1441 1442 1442 1442 1443 1443 1444 1444 1444 1445 1445 1446 1447 1447 1448 1449 1449 1450 1450 1451 1451 1452
1436 1435 1435 1434 1434 1433 1432 1432 1431 1430 1430 1430 1430 1429 1430 1430 1430 1430 1430 1430 1431 1431 1431 1431 1431 1431 1432 1432 1432 1432 1433 1433 1434 1434 1434 1434 1435 1435 1435 1435 1436 1436 1437 1437 1438 1439 1440 1440 1441 1441 1442 1442 1443 1443 1443 1444 1444 1445 1445 1446 1447 1447 1448 1449 1450 1450 1451 1451 1451
1435 1435 1434 1433 1433 1432 1432 1431 1430 1430 1429 1428 1428 1428 1428 1428 1428 1429 1429 1430 1430 1430 1430 1430 1430 1430 1431 1431 1431 1431 1432 1432 1432 1433 1433 1434 1434 1434 1435 1435 1435 1435 1436 1437 1437 1438 1439 1440 1440 1441 1441 1441 1442 1442 1443 1443 1444 1444 1445 1445 1446 1447 1448 1449 1449 1450 1450 1451 1451
1434 1434 1433 1433 1432 1431 1431 1430 1430 1429 1428 1427 1427 1427 1427 1427 1427 1427 1428 1428 1429 1429 1429 1429 1429 1430 1430 1430 1430 1430 1431 1431 1431 1432 1432 1433 1433 1433 1434 1434 1435 1435 1435 1436 1437 1437 1438 1439 1439 1440 1440 1441 1441 1442 1442 1442 1443 1444 1444 1445 1446 1447 1447 1448 1449 1450 1450 1451 1451
1434 1433 1432 1431 1431 1430 1430 1429 1429 1428 1427 1426 1426 1425 1425 1425 1426 1426 1426 1427 1427 1428 1428 1428 1428 1428 1429 1429 1429 1430 1430 1430 1430 1431 1431 1432 1432 1433 1433 1433 1434 1434 1435 1435 1436 1437 1437 1438 1439 1440 1440 1440 1441 1441 1442 1442 1443 1443 1444 1445 1445 1446 1447 1448 1449 1449 1450 1450 1450
1433 1432 1431 1430 1430 1430 1429 1428 1428 1427 1426 1425 1425 1424 1424 1424 1424 1425 1425 1426 1426 1426 1427 1427 1427 1427 1428 1428 1428 1428 1429 1429 1430 1430 1430 1431 1431 1432 1432 1433 1433 1434 1434 1435 1435 1436 1437 1437 1438 1439 1440 1440 1440 1440 1441 1441 1442 1443 1444 1444 1445 1446 1446 1447 1448 1449 1450 1450 1450
1432 1431 1430 1430 1429 1428 1428 1427 1426 1426 1425 1424 1424 1423 1423 1423 1423 1423 1424 1424 1425 1425 1426 1426 1426 1426 1427 1427 1427 1427 1428 1428 1429 1429 1429 1430 1430 1431 1431 1432 1432 1433 1433 1434 1435 1435 1436 1437 1437 1438 1439 1439 1440 1440 1440 1441 1442 1442 1443 1444 1445 1445 1446 1447 1448 1448 1449 1450 1450
1431 1430 1429 1429 1428 1427 1427 1426 1425 1425 1424 1423 1423 1422 1422 1422 1422 1422 1422 1423 1423 1424 1424 1425 1425 1425 1426 1426 1426 1426 1427 1427 1427 1428 1428 1429 1430 1430 1430 1431 1431 1432 1433 1433 1434 1435 1435 1436 1437 1438 1438 1439 1439 1440 1440 1440 1441 1442 1443 1443 1444 1445 1445 1446 1447 1448 1449 1449 1450
1430 1429 1428 1428 1427 1426 1425 1425 1424 1423 1423 1422 1421 1421 1421 1420 1420 1420 1421 1421 1422 1422 1423 1423 1424 1424 1425 1425 1425 1425 1426 1426 1426 1427 1427 1428 1429 1429 1430 1430 1431 1431 1432 1432 1433 1434 1435 1435 1436 1437 1438 1438 1439 1439 1440 1440 1441 1441 1442 1443 1444 1445 1445 1446 1447 1447 1448 1449 1449
1430 1429 1427 1427 1426 1425 1424 1423 1423 1422 1422 1421 1420 1420 1419 1419 1419 1419 1420 1420 1420 1421 1421 1422 1423 1423 1424 1424 1424 1425 1425 1425 1425 1426 1426 1427 1428 1428 1429 1429 1430 1430 1431 1432 1432 1433 1434 1435 1435 1436 1437 1438 1438 1439 1439 1440 1440 1441 1442 1443 1444 1444 1445 1446 1446 1447 1448 1448 1449
1429 1428 1426 1425 1425 1424 1423 1422 1421 1421 1420 1420 1419 1419 1418 1418 1418 1418 1418 1419 1419 1420 1420 1420 1421 1422 1422 1423 1423 1424 1424 1424 1425 1425 1425 1426 1427 1427 1428 1428 1429 1430 1430 1431 1431 1432 1433 1434 1435 1435 1436 1437 1437 1438 1439 1440 1440 1441 1442 1443 1443 1444 1445 1445 1446 1446 1447 1448 1448
1428 1427 1425 1424 1423 1422 1421 1421 1420 1420 1419 1419 1418 1417 1417 1417 1416 1417 1417 1417 1418 1418 1419 1419 1420 1420 1421 1422 1422 1423 1423 1423 1424 1424 1425 1425 1426 1426 1427 1427 1428 1429 1429 1430 1431 1432 1432 1433 1434 1435 1435 1436 1437 1438 1439 1439 1440 1441 1441 1442 1443 1444 1445 1445 1446 1446 1447 1447 1448
1427 1425 1424 1423 1422 1421 1420 1419 1419 1418 1418 1417 1417 1416 1416 1415 1415 1415 1415 1416 1416 1417 1417 1418 1418 1419 1420 1420 1421 1422 1422 1422 1423 1423 1424 1424 1425 1425 1426 1426 1427 1428 1428 1429 1430 1431 1432 1432 1433 1434 1435 1435 1436 1437 1438 1439 1440 1440 1441 1442 1443 1444 1444 1445 1445 1446 1446 1447 1447
1425 1424 1423 1422 1420 1420 1419 1418 1417 1417 1416 1416 1415 1415 1415 1414 1414 1414 1414 1415 1415 1415 1416 1416 1417 1418 1419 1419 1420 1420 1421 1421 1422 1422 1423 1423 1424 1424 1425 1425 1426 1427 1427 1428 1429 1430 1431 1431 1432 1433 1434 1435 1435 1437 1438 1439 1439 1440 1441 1441 1442 1443 1444 1444 1445 1445 1446 1446 1447
1424 1423 1421 1420 1419 1418 1417 1416 1415 1415 1415 1414 1414 1414 1413 1413 1413 1413 1413 1413 1414 1414 1415 1415 1416 1416 1417 1418 1419 1419 1420 1420 1421 1421 1422 1422 1423 1423 1424 1425 1425 1426 1426 1427 1428 1429 1430 1430 1431 1432 1433 1434 1435 1436 1437 1438 1439 1440 1440 1441 1442 1443 1443 1444 1445 1445 1445 1446 1447
1422 1421 1420 1419 1418 1417 1416 1415 1414 1414 1413 1413 1412 1412 1412 1412 1412 1412 1412 1412 1412 1413 1413 1414 1414 1415 1416 1417 1417 1418 1419 1420 1420 1420 1421 1421 1422 1422 1423 1423 1424 1425 1426 1426 1427 1428 1429 1430 1430 1431 1432 1433 1434 1435 1436 1437 1438 1439 1440 1440 1441 1442 1443 1444 1444 1445 1445 1446 1446
1421 1420 1419 1417 1416 1415 1414 1413 1413 1412 1411 1411 1411 1411 1410 1410 1410 1410 1411 1411 1411 1411 1412 1412 1413 1414 1414 1415 1416 1417 1418 1418 1419 1419 1420 1420 1421 1421 1422 1422 1423 1424 1425 1425 1426 1427 1428 1429 1430 1431 1432 1433 1434 1435 1435 1436 1437 1438 1439 1440 1441 1442 1442 1443 1444 1445 1445 1445 1446
1420 1418 1417 1416 1415 1414 1413 1412 1411 1410 1410 1410 1409 1409 1409 1409 1409 1409 1410 1410 1410 1410 1410 1411 1411 1412 1413 1414 1415 1416 1416 1417 1418 1418 1419 1419 1420 1420 1421 1421 1422 1423 1424 1425 1425 1426 1427 1428 1429 1430 1431 1432 1433 1434 1435 1436 1437 1438 1439 1439 1440 1441 1442 1443 1444 1444 1445 1445 1446
1418 1417 1416 1415 1413 1412 1411 1410 1410 1409 1408 1408 1408 1408 1408 1408 1408 1408 1408 1409 1409 1409 1409 1410 1410 1411 1412 1413 1414 1415 1415 1416 1417 1417 1418 1418 1419 1420 1420 1420 1421 1422 1423 1424 1425 1425 1426 1427 1428 1429 1430 1431 1432 1433 1434 1435 1436 1437 1438 1439 1440 1440 1441 1442 1443 1444 1445 1445 1446
1416 1415 1414 1413 1412 1411 1410 1409 1408 1407 1407 1406 1406 1406 1406 1406 1406 1406 1407 1407 1407 1407 1408 1408 1409 1410 1410 1411 1412 1413 1414 1415 1415 1416 1417 1417 1418 1419 1419 1420 1420 1421 1422 1423 1424 1425 1425 1426 1427 1429 1430 1431 1432 1433 1434 1435 1436 1436 1437 1438 1439 1440 1441 1442 1443 1443 1444 1445 1446
1415 1414 1413 1411 1410 1409 1408 1407 1406 1405 1405 1405 1405 1404 1405 1405 1405 1405 1405 1406 1406 1406 1406 1407 1407 1408 1409 1410 1411 1412 1413 1414 1414 1415 1415 1416 1417 1418 1418 1419 1419 1420 1421 1422 1423 1424 1425 1426 1427 1428 1429 1430 1431 1432 1433 1434 1435 1436 1437 1438 1439 1440 1440 1441 1442 1443 1444 1445 1445
Wind_Speed
7 8 8 9 9 10 10 11 11 11 11 11 11 11 11 11 12 12 13 13 13 13 12 12 11 10 10 10 11 12 13 13 13 13 12 12 13 13 13 13 12 11 10 9 8 7 6 6 5 4 4 5 5 5 5 5 4 4 4 4 4 4 4 4 5 5 6 7 7
8 8 8 9 9 10 10 11 11 12 12 12 12 11 11 11 12 12 12 13 13 13 12 12 11 11 11 11 11 12 12 13 13 13 13 13 13 13 13 13 12 12 11 10 9 8 7 6 5 5 5 6 6 5 5 5 4 4 3 3 3 3 4 4 5 5 6 7 7
8 8 8 8 9 9 10 10 11 11 12 12 12 11 11 11 12 12 12 13 12 12 12 12 12 11 11 11 11 11 12 13 14 14 14 13 14 13 13 13 13 12 12 11 9 8 7 6 6 5 6 6 6 6 5 5 4 3 3 3 3 3 3 4 5 5 6 7 7
9 9 9 9 9 9 10 10 10 11 11 12 12 12 11 11 11 12 12 12 12 12 12 12 12 11 11 11 11 11 12 13 14 14 14 14 14 14 14 13 13 13 12 11 10 9 8 7 6 5 6 6 7 6 5 5 4 3 3 2 2 2 3 4 5 6 6 6 7
11 10 10 10 9 9 9 10 10 11 11 12 12 12 12 12 12 12 12 12 12 12 12 12 12 11 11 11 11 11 12 13 14 15 15 15 15 14 14 14 14 13 13 12 11 10 8 7 6 6 6 6 7 6 5 5 4 3 3 2 2 2 3 4 5 6 6 6 6
12 11 11 11 10 10 10 10 10 10 11 11 11 12 12 12 12 12 12 12 12 12 12 12 12 12 11 11 11 11 11 12 13 14 15 15 15 15 15 14 14 14 13 13 12 11 9 8 7 6 6 7 7 7 6 5 4 3 3 2 1 1 3 4 5 5 6 6 6
13 13 12 12 11 11 10 10 10 10 11 11 11 11 12 13 13 13 12 12 12 12 12 12 12 12 11 11 11 10 11 11 12 13 14 15 15 15 15 15 15 14 14 13 13 12 10 9 8 8 7 8 8 8 7 5 4 4 3 2 1 1 2 3 4 5 5 5 5
14 14 14 13 13 12 12 11 11 11 11 11 11 11 12 12 12 13 13 13 13 13 13 12 11 11 11 11 10 10 10 10 11 12 14 15 15 16 16 16 15 15 15 14 13 13 11 10 10 9 8 9 9 9 7 6 5 4 3 3 1 0 1 3 4 4 4 4 4
14 14 14 14 14 13 13 12 12 11 11 11 11 11 12 12 12 13 13 13 14 14 13 12 11 10 10 10 10 9 9 10 10 11 12 14 15 16 16 16 16 16 15 14 14 13 13 12 11 10 9 9 10 9 8 6 5 5 4 3 2 1 0 2 3 3 3 3 4
14 14 14 14 14 14 14 13 13 12 11 11 11 11 12 12 12 13 13 13 14 13 13 12 11 10 9 9 9 9 9 9 10 10 12 13 14 15 16 16 16 16 15 15 15 14 14 13 12 11 10 10 10 9 8 7 6 5 5 4 3 2 1 1 2 2 2 2 3
15 14 14 14 14 15 15 14 13 12 12 11 11 11 11 12 12 13 13 13 13 13 13 13 11 10 10 9 9 9 9 9 10 10 11 12 13 14 15 15 15 15 15 15 15 15 15 14 13 12 11 10 10 10 9 7 7 6 5 4 3 2 1 0 1 1 1 2 3
15 14 14 14 14 15 15 15 14 13 12 12 11 11 11 11 12 12 13 13 13 13 13 12 11 11 10 10 10 9 9 9 10 10 10 11 12 13 13 14 14 15 15 15 15 15 15 14 13 12 11 10 10 10 9 8 7 7 6 5 4 3 2 1 1 1 1 2 2
15 15 15 14 14 15 15 15 15 14 13 12 12 11 11 11 12 12 13 13 13 13 13 12 11 11 10 10 10 10 10 10 10 10 10 10 11 11 12 13 13 14 15 15 15 15 14 14 13 12 11 11 10 10 9 9 8 8 7 6 4 3 2 2 2 1 2 2 3
15 15 15 15 15 14 15 15 15 15 14 13 12 12 12 12 12 12 12 13 13 13 13 12 12 11 11 10 10 10 10 10 10 10 10 10 10 11 11 12 12 13 14 15 15 14 14 14 14 13 12 11 11 10 10 9 9 8 7 6 5 4 3 3 2 2 2 3 3
15 15 15 16 16 15 15 15 15 15 15 14 13 13 13 12 12 12 12 13 13 13 13 13 12 12 11 11 10 10 10 10 10 10 10 10 10 10 11 11 12 13 14 14 14 13 13 14 15 14 12 11 11 10 10 10 9 9 8 7 5 5 4 4 3 3 3 4 4
15 15 15 16 16 16 15 15 15 15 15 15 14 14 13 13 13 13 12 12 13 13 13 13 12 12 12 11 11 10 10 10 10 10 10 10 10 10 11 11 12 13 13 13 13 13 14 15 15 15 13 12 11 11 10 10 10 9 8 7 6 5 5 4 4 4 4 4 4
15 15 15 16 17 17 16 15 15 15 15 15 15 15 14 14 14 13 13 13 12 12 12 12 12 12 12 11 11 10 10 10 10 10 10 11 11 11 11 11 12 13 13 13 13 13 14 15 16 16 15 13 12 11 11 11 10 10 9 8 7 6 5 5 5 5 5 5 5
15 15 15 15 16 17 17 16 15 15 15 16 16 15 15 15 14 14 13 13 13 12 12 12 12 12 12 12 11 10 10 10 10 10 10 11 11 11 11 11 12 13 13 12 13 13 15 16 17 16 15 14 13 13 12 12 11 10 10 9 8 7 6 6 6 6 6 6 6
15 15 15 15 15 16 17 17 16 15 15 16 16 16 16 16 15 15 14 14 13 13 12 12 12 12 12 12 11 11 10 10 10 10 11 11 11 11 11 12 12 13 13 12 13 14 15 16 17 17 15 14 14 13 13 13 12 11 11 10 9 8 7 7 7 7 7 7 7
14 15 15 14 15 16 17 18 17 16 15 15 16 16 17 17 16 15 15 14 13 13 12 12 12 12 12 12 11 11 10 10 10 10 10 11 11 11 12 12 12 13 13 13 13 14 15 16 17 17 16 15 13 13 14 14 13 12 11 11 10 9 8 8 8 8 8 7 7
14 14 14 14 14 15 17 18 18 17 16 15 16 17 17 17 17 16 15 14 14 13 13 12 12 12 12 12 11 11 10 10 10 10 10 11 11 11 12 12 12 13 13 13 13 14 15 16 17 17 16 15 13 13 14 14 13 13 12 11 11 10 9 9 9 9 8 8 8
14 14 14 14 13 14 15 17 19 18 17 16 16 16 17 18 17 17 16 15 14 13 13 12 12 12 12 12 11 11 11 10 10 10 10 11 11 12 12 12 12 13 13 13 13 14 15 16 16 17 16 15 14 14 14 14 14 13 13 12 11 11 11 10 10 10 9 9 9
14 14 14 13 13 13 14 16 18 18 17 16 16 16 17 18 18 17 16 15 14 14 13 13 12 12 12 12 11 11 11 10 10 10 10 11 11 12 12 12 12 12 12 13 13 14 15 16 17 17 17 16 15 14 14 14 14 14 14 13 12 12 11 11 11 10 10 10 10
15 14 13 13 13 13 14 15 16 17 17 17 16 15 16 17 18 18 17 16 15 14 14 13 13 12 12 12 11 11 11 11 10 10 10 11 11 12 12 13 13 13 13 13 13 14 15 16 17 17 17 16 16 15 15 15 15 15 14 14 13 13 12 12 12 11 11 11 11
16 15 14 13 13 14 15 16 16 16 17 17 16 15 15 17 18 18 17 16 15 14 14 14 13 13 12 12 11 11 11 11 11 11 11 11 11 12 13 13 13 13 13 13 14 14 15 16 17 17 17 17 17 16 16 16 16 15 15 15 14 13 13 13 13 13 12 12 12
17 16 15 14 14 15 15 16 16 16 16 16 16 15 15 16 17 18 17 17 16 15 14 14 14 13 13 12 12 11 11 11 11 11 11 11 11 12 13 13 13 13 13 14 14 15 16 16 17 17 18 18 18 17 17 16 16 16 16 16 15 14 14 14 13 13 13 13 12
19 18 16 15 15 15 16 17 17 17 16 16 16 15 15 15 16 17 17 17 16 15 15 15 14 14 13 12 12 12 11 11 11 11 11 11 12 12 13 13 13 14 14 14 15 15 16 17 17 18 18 18 18 18 17 17 17 17 17 16 16 16 15 15 14 14 14 13 13
21 20 19 17 17 17 17 17 18 17 16 15 15 15 15 15 16 16 17 17 17 16 16 15 15 14 14 13 12 12 12 12 11 11 11 11 12 12 13 13 14 14 14 15 15 16 16 17 18 18 18 18 18 18 18 18 18 18 17 17 17 16 16 16 16 15 14 14 13
23 22 21 20 19 18 18 18 18 18 16 15 15 15 15 15 15 16 17 17 17 17 16 16 15 15 14 13 13 13 12 12 12 11 11 12 12 13 13 14 14 14 15 15 16 16 17 18 18 18 19 19 19 18 18 18 18 18 18 17 17 17 17 17 16 16 15 14 14
24 24 24 23 22 20 19 19 18 18 17 16 15 14 14 15 15 16 16 17 17 17 17 16 16 15 14 14 13 13 13 12 12 12 12 12 12 13 14 14 14 15 15 16 16 16 17 18 19 19 19 19 19 19 19 19 19 18 18 18 18 18 17 17 17 16 16 15 14
24 25 25 25 24 22 21 19 19 18 17 16 15 14 14 14 15 15 16 16 17 17 17 17 16 15 15 14 14 13 13 13 12 12 12 12 13 13 14 14 15 15 16 16 16 17 17 18 19 19 19 19 19 19 19 19 19 19 19 18 18 18 18 17 17 17 16 16 15
25 25 26 26 25 24 21 20 19 18 17 16 15 14 14 14 15 15 16 16 17 17 17 17 16 16 15 14 14 14 14 13 13 12 12 12 13 13 14 14 15 16 16 16 16 16 18 19 19 20 19 19 19 19 18 18 19 19 19 19 19 18 18 18 17 17 17 16 15
26 26 27 27 26 24 22 20 19 17 17 16 15 14 14 14 14 15 15 16 16 17 17 17 17 16 15 14 14 14 14 14 13 13 13 13 13 13 14 15 16 16 16 16 16 16 18 19 20 20 20 19 19 18 18 18 19 20 20 19 19 19 19 18 18 17 17 16 15
27 27 27 27 26 25 23 20 19 17 16 16 15 14 14 14 14 15 15 15 16 17 18 18 17 17 16 15 14 14 14 14 14 13 13 13 13 13 14 15 16 16 16 15 15 16 18 19 20 20 20 20 19 19 18 19 19 20 20 19 19 19 19 19 18 17 17 16 15
28 28 27 27 26 25 23 21 19 17 16 16 15 14 13 13 14 14 15 15 16 17 17 18 18 17 16 16 15 14 14 14 14 14 13 13 13 13 14 15 16 16 16 15 15 16 18 20 20 21 20 20 19 19 19 19 19 19 19 19 19 19 19 19 18 17 16 16 15
28 27 27 26 26 25 24 22 19 17 16 15 15 14 13 13 13 14 15 15 16 16 17 18 18 18 17 16 15 15 15 14 14 14 14 13 13 14 14 15 16 16 15 15 15 16 18 20 21 21 21 20 20 19 20 20 20 20 20 19 19 19 18 18 18 17 16 15 15
27 27 26 26 25 25 24 22 20 18 16 16 15 14 13 13 13 14 15 15 15 16 17 18 18 18 17 17 16 15 15 15 14 14 14 13 13 14 14 15 16 15 15 15 15 17 18 20 21 21 21 20 20 20 20 20 20 20 20 19 19 18 18 17 17 16 16 15 15
26 26 25 25 25 25 24 22 20 18 17 16 15 15 14 14 14 14 14 15 15 16 17 18 19 19 18 17 16 15 15 15 15 14 14 14 13 14 14 15 15 15 15 15 15 17 18 20 21 21 21 20 20 20 20 20 20 19 19 19 19 18 18 17 17 16 16 15 15
26 25 25 24 24 24 23 22 21 19 17 17 16 15 14 14 14 14 14 15 15 16 17 18 19 19 18 17 16 16 15 14 15 15 14 14 13 13 14 15 15 15 15 15 16 17 18 20 21 21 21 20 21 20 20 20 19 19 19 19 18 18 17 17 17 16 15 15 14
26 25 24 24 24 23 23 22 21 19 18 17 16 16 15 14 14 14 14 14 15 15 17 18 18 19 18 17 17 16 15 14 15 15 14 14 13 13 14 14 15 15 15 15 16 17 19 20 20 20 20 21 21 21 20 20 19 19 19 18 18 17 17 17 16 16 15 14 14
25 24 24 23 23 23 22 22 21 19 18 17 16 16 15 15 15 14 14 14 14 15 16 17 18 19 19 18 17 16 15 14 14 15 14 14 13 13 14 14 15 15 15 16 17 18 19 20 20 20 21 21 21 21 20 20 19 19 18 18 18 17 17 17 17 16 15 15 14
Wind_Direction
306 305 304 303 302 301 300 298 296 293 291 289 288 287 286 284 281 278 276 274 272 272 271 271 267 262 254 246 243 240 237 231 225 222 222 225 227 224 219 213 210 208 206 202 200 196 192 186 176 165 161 162 157 145 131 116 107 97 85 73 58 44 32 24 17 10 5 3 2
301 300 300 299 298 298 297 296 296 294 291 288 287 287 287 286 284 282 280 278 276 275 274 271 268 263 258 253 248 244 240 233 227 222 221 223 226 224 220 217 215 214 213 211 208 203 198 193 185 175 169 168 164 155 142 128 119 110 96 79 61 43 28 19 10 4 0 358 359
296 294 293 293 293 294 295 295 296 295 294 292 289 288 287 286 285 283 281 280 279 277 277 275 272 269 265 262 257 252 244 236 229 223 220 222 224 225 223 221 220 220 219 218 216 212 206 200 195 187 178 173 170 164 153 141 133 122 106 85 61 38 21 12 4 358 356 356 358
292 290 288 287 288 289 291 292 293 294 294 294 292 290 288 286 283 281 280 280 279 278 277 276 274 273 271 269 265 258 250 240 231 224 220 220 222 224 224 224 225 225 225 224 222 219 214 209 202 198 191 183 178 172 162 152 145 134 118 93 64 33 13 4 359 355 353 355 0
289 288 286 284 283 283 284 285 287 289 291 292 292 291 289 286 282 280 279 279 279 277 275 274 274 274 274 271 267 262 254 243 233 224 219 218 220 223 225 226 228 229 231 231 229 226 222 216 210 206 203 194 186 178 170 163 157 150 134 109 73 26 5 358 356 353 353 357 4
286 285 284 283 282 280 279 280 281 283 285 288 290 290 289 286 283 280 279 279 277 276 274 274 275 276 275 273 270 265 257 246 235 225 219 217 219 223 225 227 229 232 235 236 236 233 228 222 218 215 209 200 191 183 177 173 170 163 148 129 92 27 1 353 353 353 354 1 9
285 282 281 281 280 279 277 276 276 277 280 282 284 286 286 285 284 282 280 278 276 274 273 273 274 276 277 276 273 268 261 250 238 228 222 219 220 223 225 228 231 234 237 239 240 238 233 226 224 222 214 203 194 188 182 179 177 170 159 148 122 31 355 350 351 353 357 6 16
285 280 279 278 278 277 276 273 272 272 275 277 280 282 283 283 283 282 281 279 278 276 274 274 274 275 275 275 274 271 265 255 243 233 226 223 222 224 226 229 232 234 237 240 242 241 237 230 227 223 215 205 197 191 185 180 179 173 165 160 151 87 352 347 351 354 0 12 23
292 283 278 276 276 276 275 272 270 269 270 272 275 278 280 281 282 281 281 280 279 278 278 278 277 276 275 274 273 271 266 259 248 239 232 227 226 226 228 230 233 236 238 241 242 242 239 234 229 223 215 207 199 192 185 180 179 175 169 167 165 162 3 350 348 352 4 21 32
306 293 282 277 275 275 275 274 271 269 268 269 271 274 277 278 279 279 279 279 279 280 281 281 281 280 278 275 272 270 266 260 252 245 238 233 230 229 230 232 234 236 239 242 243 242 239 235 230 222 213 206 200 192 185 180 178 175 171 168 167 165 155 358 351 357 13 34 45
318 306 294 284 277 275 274 275 274 272 269 268 267 269 272 274 276 276 277 277 279 280 281 281 283 283 282 278 274 270 266 262 257 251 245 240 236 233 232 233 234 236 239 242 243 242 240 238 229 218 209 205 198 190 184 180 177 175 173 170 166 164 165 140 19 19 41 56 63
327 318 307 294 284 277 274 274 274 274 272 269 267 266 267 269 272 274 275 277 277 278 279 280 282 284 282 279 275 270 267 264 261 257 253 248 243 239 236 235 234 235 237 240 242 242 242 240 229 215 204 200 194 188 183 179 176 174 174 172 165 164 165 165 135 93 86 89 85
333 329 321 308 295 283 277 274 273 272 272 270 268 265 264 265 268 270 273 275 276 276 277 279 280 280 279 277 273 270 267 265 263 261 259 255 250 245 240 237 235 235 237 239 240 241 242 241 230 216 204 198 192 186 181 179 176 175 175 173 167 164 163 162 155 146 134 124 108
336 336 332 323 309 296 285 278 274 272 271 270 268 265 262 261 264 266 269 271 273 275 276 277 277 276 276 275 272 269 265 263 262 261 260 258 254 249 244 239 236 235 236 238 238 240 241 240 230 217 204 198 191 186 181 178 177 175 174 173 169 166 162 161 161 159 153 142 124
336 339 338 332 322 309 296 286 278 273 271 270 269 266 263 260 260 262 264 267 270 272 274 274 274 274 273 273 270 267 264 261 260 260 259 258 255 251 246 242 238 237 237 238 237 238 239 237 229 216 203 195 189 185 181 179 177 174 172 168 166 164 163 165 166 166 160 150 135
336 339 340 337 330 321 309 296 284 277 273 270 269 267 265 261 258 259 260 263 266 269 271 272 273 272 272 270 268 266 263 260 258 257 256 255 254 251 248 244 241 239 238 237 237 237 236 233 225 214 202 192 185 183 183 181 178 174 171 165 162 162 165 170 172 170 164 155 142
335 337 339 338 334 328 319 307 294 283 276 271 269 268 266 263 260 258 258 259 262 265 268 269 271 271 271 269 267 264 261 259 256 255 254 253 252 251 248 246 243 241 239 237 236 235 234 230 221 211 200 191 183 182 183 183 180 176 171 166 163 164 168 175 177 174 168 160 149
334 335 336 337 336 332 325 316 304 292 281 274 270 268 266 265 262 259 257 256 258 260 263 266 268 269 269 268 266 263 260 258 255 253 251 251 251 250 249 247 245 243 240 237 234 233 231 228 221 211 200 190 185 183 183 183 181 177 173 169 165 167 171 178 180 178 171 164 154
332 332 333 335 335 333 328 321 312 299 287 277 271 268 266 265 263 260 258 257 256 257 259 262 264 266 266 266 264 262 259 256 254 251 250 250 250 249 249 248 247 245 243 239 235 232 229 226 221 212 201 190 186 185 184 183 181 179 175 172 169 170 175 180 181 179 174 168 158
329 330 330 332 335 335 331 325 317 306 293 281 273 268 266 265 263 262 259 258 256 256 256 258 260 262 263 262 261 260 258 256 253 251 250 249 249 248 248 247 247 247 245 241 236 232 228 224 221 214 204 191 187 187 186 184 182 180 178 175 173 174 177 180 181 179 175 170 161
326 327 327 328 333 336 334 330 322 312 299 286 276 270 266 264 263 262 260 258 257 256 255 255 256 258 259 259 259 257 256 255 252 250 249 248 248 247 246 246 246 247 246 242 237 232 227 223 220 216 208 195 188 188 187 186 184 182 180 177 176 176 178 180 180 178 175 171 162
324 323 324 325 330 334 335 332 326 318 307 294 281 271 266 264 262 261 260 259 258 256 255 253 253 254 255 256 256 255 254 253 251 249 248 248 248 247 245 244 245 246 246 243 236 231 226 222 218 215 209 199 191 188 188 187 185 183 181 179 178 178 179 179 178 177 175 171 164
322 321 321 322 326 330 331 329 325 320 312 301 288 276 268 264 261 261 260 259 258 256 254 252 251 251 252 253 253 253 252 251 249 247 247 247 247 246 245 244 244 245 244 241 235 229 225 222 218 214 209 201 193 190 189 188 185 183 181 180 179 179 179 179 177 176 175 172 166
323 320 318 319 322 324 325 324 321 319 315 307 296 283 272 264 261 259 259 258 257 256 254 252 251 250 249 250 251 250 249 248 247 247 246 246 246 245 244 243 243 243 241 238 233 228 224 221 218 214 209 202 196 192 190 188 186 183 181 180 179 179 178 178 177 177 176 174 169
325 320 317 317 319 320 320 319 318 317 315 311 302 290 278 268 261 258 257 256 256 255 254 253 250 249 248 248 247 248 247 246 245 244 244 245 245 244 243 242 242 240 238 235 231 227 223 221 218 214 209 203 198 194 191 188 186 184 182 180 178 177 177 176 177 177 178 176 171
329 323 319 316 315 316 316 315 314 314 314 311 305 296 284 272 263 258 256 255 254 253 253 252 250 248 246 245 245 245 244 244 242 242 243 243 243 243 242 241 240 239 236 234 231 226 223 220 217 213 209 204 200 196 193 189 187 186 184 180 178 177 176 176 177 177 177 176 172
333 328 322 316 313 312 312 311 311 311 311 310 307 300 289 276 266 260 257 254 253 252 251 251 250 248 246 244 243 243 243 242 241 241 241 241 241 242 241 240 240 238 236 233 230 226 223 220 217 214 210 206 201 197 194 191 189 188 185 181 178 177 176 176 176 176 176 175 173
334 331 326 320 314 311 308 307 308 309 310 309 306 301 292 281 270 262 257 254 252 251 250 250 249 248 246 243 242 242 242 241 240 240 240 239 240 240 240 240 239 238 236 233 230 226 222 219 216 214 212 208 203 198 194 192 191 189 185 181 179 178 177 176 175 175 174 173 171
333 331 328 324 318 312 307 305 306 308 309 308 305 300 294 285 274 264 258 254 251 250 250 250 250 248 246 244 243 241 241 240 239 239 238 238 238 238 238 238 238 238 236 234 230 226 222 218 216 214 212 210 206 201 196 193 191 189 186 182 181 180 179 176 174 173 172 171 170
331 329 327 325 321 315 310 306 305 306 308 306 303 299 293 286 277 268 260 255 252 250 249 249 249 249 247 245 243 241 240 239 238 237 236 236 236 236 236 237 237 237 236 234 231 226 221 218 215 213 212 210 208 203 198 194 191 188 185 183 182 181 179 177 174 172 171 170 169
328 326 325 324 322 319 313 307 305 304 305 304 301 297 292 287 280 272 264 257 253 250 248 248 248 248 247 245 243 242 240 238 237 236 235 234 234 234 234 235 235 236 235 234 231 227 222 218 215 213 211 210 208 205 200 195 190 187 185 183 182 181 180 177 175 173 171 169 168
325 324 323 322 322 320 315 310 305 303 303 302 300 296 291 287 282 274 266 258 253 250 248 248 248 247 247 246 245 243 241 239 237 235 234 233 233 232 232 233 234 235 235 233 231 226 222 218 215 212 210 208 206 204 200 195 190 186 184 182 182 181 179 177 175 173 172 170 168
323 322 321 321 322 320 317 312 306 302 300 300 298 295 291 287 283 277 269 261 254 251 249 247 246 246 247 247 246 244 243 240 237 235 233 232 232 231 231 231 233 234 234 232 230 225 221 218 215 212 209 206 204 201 198 194 189 185 183 181 181 180 178 176 175 174 173 170 168
322 321 321 321 321 320 318 313 307 302 298 297 296 294 291 287 284 279 273 265 257 251 248 246 245 245 246 246 246 245 243 241 238 235 233 232 231 229 229 229 232 233 233 232 228 224 220 217 214 211 208 205 201 198 196 192 188 185 182 181 181 180 178 177 176 175 174 171 168
322 322 321 321 321 320 318 315 309 302 297 295 294 292 289 286 283 280 276 269 260 253 248 245 244 244 245 245 245 244 244 242 239 236 234 232 230 229 228 228 231 232 232 230 226 222 219 216 214 211 207 203 199 196 194 191 188 185 182 181 181 181 179 178 176 175 174 171 168
324 323 322 321 321 320 318 315 311 303 297 293 292 290 287 284 282 280 277 271 263 255 249 245 243 243 243 244 245 244 244 243 241 238 235 232 230 229 228 228 230 231 230 228 224 220 217 215 213 210 206 202 198 195 193 191 188 185 182 181 181 181 180 178 176 175 174 172 169
325 324 322 321 320 319 318 316 311 304 297 291 289 287 285 282 280 280 278 273 265 257 251 246 243 241 241 242 243 244 244 243 242 240 237 234 231 229 228 228 229 229 228 225 221 218 216 214 212 209 205 201 198 196 194 191 188 185 183 181 181 180 179 178 176 175 174 172 170
326 324 322 321 320 318 317 315 311 305 298 291 287 284 282 280 279 278 277 273 266 259 252 247 243 240 239 241 242 243 243 243 243 241 238 236 233 230 229 229 228 227 225 222 218 216 215 214 211 208 204 200 198 197 195 192 189 186 183 182 181 179 178 177 176 175 173 172 170
326 324 322 320 319 318 316 315 311 306 299 291 286 282 279 277 276 275 275 273 266 259 254 249 245 241 239 240 241 242 242 242 242 241 239 236 234 231 230 229 228 226 223 219 216 214 214 213 211 207 203 200 199 197 195 192 190 187 184 182 181 179 177 176 174 173 172 172 171
326 324 322 320 318 317 316 314 310 306 299 292 286 281 277 274 273 273 273 271 266 259 254 249 245 242 240 239 239 240 241 241 241 240 238 237 235 232 230 228 227 224 221 217 214 213 213 212 209 206 203 200 199 197 195 193 191 188 184 182 180 179 177 175 173 171 170 170 169
326 324 322 320 318 316 315 313 309 305 299 292 285 280 275 272 271 271 270 267 263 258 254 249 246 243 240 238 238 238 238 238 239 239 238 236 234 232 230 228 227 224 220 216 213 212 212 211 208 205 202 201 199 197 195 194 191 188 184 181 180 179 177 175 173 171 169 168 166